Content
SEND FEEDBACK

Daily
Averages
Monthly
Summary
United States of America

MERIZO, GUAM


Home > North America > United States > Guam
Elevation: 10 feet     Latitude: 13 14N     Longitude: 144 39E

WEATHER
 
SELECT A DAY
Number of Records: 342,273;   Date Range: 1/1/95 - 8/30/14
 
SHARE

PRINT THIS DATA

[ ← Previous Day ]
WEATHER ALMANAC - NOVEMBER 11, 2013
[ Next Day → ]
[ °C ]   °F
Weather ElementAverageHighLow
Temperature81.3 °F85.3 °F (12:58 pm)77.5 °F (4:58 am)
Dewpoint75.5 °F77.7 °F (9:58 am)73.2 °F (3:58 am)
Humidity82.7 %91 % (11:58 pm)77 % (2:58 pm)
Barometer29.82 in29.88 in (8:48 am)29.75 in (1:58 pm)
Wind Speed11.7 mph15 mph (9:58 am)
Wind Gust19.6 mph (9:18 am)
Weather ElementAverage
Visibility10 mi
Wind DirectionENE (74.8 °)

Weather ElementTotal
Precipitation---
Cooling Degree Days16.4 (Base 65)
Growing Degree Days31.4 (Base 50)
Averaged from 29 records on November 11, 2013
WEATHER CONDITIONS BREAKOUT
WIND DIRECTION BREAKOUT
WEATHER BY HOUR - NOVEMBER 11, 2013
[ °C ]   °F
Local TimeTemperatureDewpointHumidityBarometerVisibilityWind DirectionWind SpeedGust SpeedPrecipitationEventsConditions
1:58 AM79.0 °F74.1 °F85 %29.81 in10.0 miEast (80°)11.5 mphScattered Clouds
2:58 AM79.0 °F74.1 °F85 %29.79 in10.0 miEast (80°)10.4 mphPartly Cloudy
3:58 AM78.3 °F73.2 °F84 %29.79 in10.0 miENE (70°)12.7 mphClear
4:58 AM77.5 °F74.1 °F89 %29.79 in10.0 miENE (70°)9.2 mphClear
5:58 AM78.3 °F74.3 °F88 %29.81 in10.0 miENE (70°)12.7 mphClear
6:58 AM79.0 °F74.3 °F85 %29.83 in10.0 miENE (70°)12.7 mphClear
7:58 AM81.3 °F75.0 °F81 %29.84 in10.0 miEast (90°)12.7 mphClear
8:48 AM82.4 °F77.0 °F84 %29.88 in10.0 miENE (70°)13.8 mphMostly Cloudy
8:53 AM84.2 °F77.0 °F79 %29.88 in10.0 miENE (70°)13.8 mphScattered Clouds
8:58 AM83.3 °F76.3 °F79 %29.86 in10.0 miEast (80°)12.7 mphPartly Cloudy
9:18 AM84.2 °F77.0 °F79 %29.88 in10.0 miEast (80°)13.8 mph19.6 mphMostly Cloudy
9:23 AM84.2 °F77.0 °F79 %29.87 in10.0 miEast (90°)12.7 mph19.6 mphScattered Clouds
9:58 AM83.7 °F77.7 °F82 %29.84 in10.0 miENE (70°)15.0 mphScattered Clouds
10:38 AM84.2 °F77.0 °F79 %29.85 in10.0 miEast (80°)13.8 mphMostly Cloudy
10:43 AM84.2 °F77.0 °F79 %29.85 in10.0 miEast (80°)12.7 mphScattered Clouds
10:58 AM83.5 °F76.8 °F80 %29.81 in10.0 miEast (80°)15.0 mphScattered Clouds
11:58 AM84.4 °F77.5 °F80 %29.79 in10.0 miEast (80°)12.7 mphPartly Cloudy
12:58 PM85.3 °F77.5 °F78 %29.77 in10.0 miENE (60°)12.7 mphScattered Clouds
1:58 PM84.0 °F76.6 °F78 %29.75 in10.0 miEast (80°)13.8 mphScattered Clouds
2:58 PM84.2 °F76.1 °F77 %29.75 in10.0 miEast (90°)10.4 mphPartly Cloudy
3:58 PM82.6 °F76.6 °F82 %29.76 in10.0 miENE (70°)10.4 mphPartly Cloudy
4:58 PM81.5 °F75.4 °F82 %29.77 in10.0 miEast (80°)11.5 mphPartly Cloudy
5:58 PM80.1 °F73.2 °F80 %29.78 in10.0 miEast (90°)10.4 mphPartly Cloudy
6:58 PM79.2 °F73.4 °F82 %29.79 in10.0 miEast (80°)11.5 mphClear
7:58 PM78.8 °F73.9 °F85 %29.81 in10.0 miENE (70°)9.2 mphPartly Cloudy
8:58 PM78.1 °F74.3 °F88 %29.82 in10.0 miENE (60°)8.1 mphClear
9:58 PM77.7 °F74.3 °F89 %29.83 in10.0 miENE (60°)8.1 mphClear
10:58 PM78.1 °F74.8 °F90 %29.83 in10.0 miENE (60°)6.9 mphPartly Cloudy
11:58 PM78.1 °F75.2 °F91 %29.82 in10.0 miENE (60°)8.1 mphPartly Cloudy
Hourly data recorded from PGUA, located miles away from Merizo, Guam







STORIES FROM OUR PARTNERS